Theta_e
321 320 318 317 316 317 322 324 328 329 325 325 323 322 325 329 329 330 329 328 328 332 331 332 332 333 332 333 332 334 329 325 331 333 329 330 330 334 332 332 335 329 326 332
320 318 317 315 314 317 322 324 330 327 326 322 321 324 327 329 328 329 328 329 328 329 330 333 332 332 331 332 330 330 329 327 328 328 327 327 329 328 327 327 325 331 333 334
318 318 315 314 314 318 323 325 329 329 326 326 325 325 327 330 330 329 329 328 328 329 329 327 330 332 331 330 331 330 329 324 326 329 330 327 328 331 333 327 330 329 341 346
317 317 314 314 315 323 325 329 328 326 326 327 324 325 327 331 329 329 329 328 328 329 327 327 328 327 326 329 326 327 325 327 328 327 327 325 331 331 337 338 338 339 341 341
316 316 314 313 316 322 325 323 324 325 326 328 326 325 327 330 329 328 327 326 325 323 323 324 325 323 325 327 322 324 320 324 324 321 324 324 331 330 332 336 337 335 335 334
316 315 313 313 314 319 322 318 321 325 328 326 323 322 327 326 328 328 325 324 322 321 321 321 321 321 322 323 321 320 322 320 320 323 322 324 325 329 329 334 333 334 334 333
315 314 313 313 313 319 319 315 323 326 326 324 322 323 325 324 322 324 323 324 323 322 321 321 322 321 320 319 317 317 320 321 320 323 321 325 326 324 327 333 331 330 331 330
315 314 313 313 312 315 319 315 318 324 324 323 323 323 321 322 324 323 322 322 321 321 321 317 320 321 322 321 320 320 318 318 321 321 321 326 328 324 324 327 330 328 328 327
314 314 312 313 312 315 318 317 317 324 325 319 321 324 321 318 319 320 322 322 320 321 317 318 324 326 324 326 323 319 317 317 320 321 325 327 325 324 325 325 327 327 326 326
312 314 312 313 312 316 320 319 317 322 325 321 321 321 321 324 323 321 322 322 321 323 316 320 324 324 324 327 325 324 320 319 322 322 326 330 325 326 326 328 324 325 325 324
313 314 312 313 312 316 321 321 318 318 321 321 320 321 323 322 322 319 322 323 323 320 322 321 321 320 321 321 322 320 321 321 321 319 326 331 324 325 327 324 324 324 324 324
316 312 313 312 312 310 312 316 316 317 321 324 320 318 318 320 319 319 324 322 322 323 321 321 320 323 321 319 325 322 325 322 323 322 324 324 324 324 324 322 323 323 322 323
320 313 313 312 312 310 311 317 315 319 320 321 322 322 318 318 318 319 323 323 324 324 323 323 321 324 319 323 323 325 325 325 323 322 323 324 324 323 324 324 324 324 324 323
323 317 313 313 312 309 309 317 316 316 318 321 322 320 320 319 319 320 321 322 322 323 324 324 320 323 323 320 321 322 323 324 322 321 323 324 323 323 324 323 321 320 319 319
323 320 313 313 312 312 314 317 316 315 314 319 322 321 321 319 319 318 321 321 322 324 324 322 321 324 322 321 320 322 324 322 321 321 324 324 323 324 322 319 319 319 319 319
322 321 315 313 312 311 321 322 321 320 309 317 318 322 320 319 319 320 321 322 323 323 324 323 325 325 323 321 322 324 325 325 324 324 324 324 323 324 320 318 319 318 319 319
322 321 316 313 312 312 311 320 319 313 309 322 320 320 321 320 320 321 321 323 322 323 324 324 325 325 325 319 321 324 324 322 320 323 323 321 322 320 318 319 317 317 318 317
321 319 315 313 312 312 320 317 320 317 310 319 316 317 321 320 320 320 321 322 323 324 324 326 325 326 325 323 322 322 321 321 320 321 320 320 318 317 318 319 315 317 318 316
318 315 313 313 314 321 322 318 314 317 313 322 321 314 322 321 321 322 324 323 323 326 324 325 325 323 326 323 323 322 323 322 319 318 317 316 314 317 318 316 316 316 318 317
315 313 320 321 321 320 320 316 319 319 313 313 319 321 317 323 323 322 325 326 323 324 323 326 323 323 326 326 327 327 324 320 318 315 314 314 313 317 318 317 316 316 316 314
314 317 318 318 317 316 318 321 322 322 320 319 318 316 314 321 323 322 326 320 321 325 323 324 325 326 327 328 328 325 322 319 316 314 314 313 316 317 318 318 317 316 315 313
316 316 315 316 317 319 319 317 319 320 321 322 321 321 318 322 323 325 325 323 323 327 325 326 327 324 328 327 325 323 322 318 315 314 314 313 316 317 318 318 317 316 315 314
315 315 316 316 318 313 320 319 319 319 320 322 321 321 325 323 322 323 321 324 322 323 325 326 323 329 327 324 323 323 320 317 315 314 314 313 316 318 317 316 316 316 316 315
315 316 306 312 315 316 317 318 318 323 323 323 322 323 321 323 319 321 324 320 321 324 323 325 323 328 326 324 323 321 319 317 316 315 315 314 315 317 315 316 315 315 317 316
313 314 311 314 316 317 319 320 321 322 322 323 323 323 323 321 323 321 320 323 325 323 323 320 326 328 326 325 324 322 320 318 316 315 315 314 315 315 315 313 316 314 315 317
311 311 313 315 316 318 319 319 319 320 320 322 322 321 322 322 321 322 322 323 324 321 323 328 328 327 326 325 324 323 321 320 317 315 314 314 314 314 314 312 313 314 313 316
308 309 312 312 314 315 317 319 319 318 319 319 321 322 321 320 322 321 319 321 320 326 327 328 327 327 326 326 325 325 323 322 320 318 316 315 315 315 315 312 311 313 313 313
Wind_Speed
21 21 20 22 24 21 13 4 2 14 18 3 1 2 5 6 5 10 4 5 6 2 6 7 8 5 4 4 3 4 3 5 1 4 6 5 7 2 3 4 4 1 4 1
20 20 20 22 24 22 18 9 5 20 13 2 2 6 8 10 6 2 4 6 4 4 4 4 6 6 11 16 5 2 3 3 3 11 6 8 7 6 3 1 4 1 2 4
20 20 20 21 21 18 15 4 3 3 17 13 2 4 7 6 2 5 5 4 5 6 9 9 5 8 10 23 13 15 6 5 6 5 4 5 6 13 11 6 4 1 6 8
20 19 20 20 20 14 7 4 2 5 3 5 8 4 5 6 5 10 17 8 9 3 5 5 5 8 7 9 18 11 5 3 2 2 2 6 6 8 14 12 3 6 3 11
19 19 19 19 18 9 8 5 6 8 6 14 6 5 8 6 5 6 4 8 9 11 6 3 2 4 3 1 9 5 5 0 3 8 6 7 5 13 8 10 5 9 5 6
18 18 18 19 17 11 5 9 2 4 8 9 4 5 4 5 4 12 9 9 5 8 4 9 11 13 12 9 4 2 2 3 3 2 5 4 5 7 7 4 5 1 4 3
17 17 16 17 16 15 13 16 5 5 4 4 4 8 8 6 4 4 12 13 6 3 10 13 10 7 8 10 9 3 4 4 3 2 4 1 6 3 6 8 7 4 2 3
16 15 15 15 13 10 10 17 8 4 1 7 11 19 7 11 8 4 10 5 3 7 6 4 5 6 5 6 8 10 6 4 3 3 2 3 3 5 2 3 2 2 2 4
15 14 14 15 13 9 5 16 15 2 2 6 10 3 10 3 4 6 3 6 5 4 3 3 2 3 4 1 6 4 8 7 5 2 2 3 4 7 15 5 2 13 14 14
15 13 13 14 12 8 6 11 14 3 3 9 12 6 2 4 3 1 3 8 8 9 3 3 1 1 2 2 2 2 4 4 4 2 3 1 4 11 6 2 4 16 13 17
15 13 12 12 12 7 4 7 11 6 2 5 6 6 5 3 6 2 6 4 7 6 5 2 2 2 1 4 3 5 3 3 0 2 3 4 12 4 4 4 15 14 19 20
14 13 11 11 11 8 6 5 4 3 4 3 3 3 5 4 6 5 5 4 2 2 3 1 1 3 3 3 1 5 3 4 4 4 4 3 4 8 3 11 11 16 19 19
14 13 11 10 10 8 6 8 10 3 3 5 3 6 4 4 1 1 2 3 3 2 2 2 2 3 3 2 2 3 3 3 3 4 3 2 8 9 11 14 14 18 18 21
13 12 11 10 9 8 4 3 7 8 4 2 0 5 3 3 6 4 6 4 3 2 6 1 2 2 2 3 3 4 4 3 3 2 2 5 6 12 13 13 17 20 22 24
13 12 11 9 8 5 1 2 4 9 5 3 5 7 7 8 5 4 6 3 2 4 3 2 1 1 3 3 4 1 3 5 3 4 4 3 11 6 10 16 18 22 28 32
13 11 10 9 7 2 3 2 2 5 8 3 3 3 14 12 8 6 5 5 2 2 1 2 1 2 3 3 2 4 10 9 4 2 2 9 11 6 13 19 22 28 29 25
11 10 9 8 7 4 3 2 2 7 6 2 6 8 12 14 9 5 6 7 4 3 2 2 2 1 2 2 3 14 13 7 2 2 2 5 1 5 15 17 23 28 28 20
9 8 7 6 5 4 1 2 4 6 2 2 0 5 3 15 6 3 9 7 11 5 4 2 3 4 2 2 6 19 13 6 6 4 3 3 3 8 13 18 23 31 31 25
6 6 4 2 1 0 2 8 10 9 4 1 1 2 3 9 11 6 4 6 2 3 3 4 6 2 3 6 21 18 13 6 5 3 5 2 10 7 11 16 22 29 29 27
3 1 1 2 2 7 10 3 2 1 3 4 4 4 3 3 4 3 2 1 2 1 4 3 2 4 11 14 20 17 10 7 7 8 3 3 3 6 9 12 19 25 24 25
3 2 1 2 7 3 1 2 3 3 3 6 7 9 4 3 2 3 2 3 1 0 5 4 2 3 8 19 20 13 10 8 6 3 1 4 1 5 7 9 13 19 21 25
2 1 2 2 1 2 0 2 4 2 4 5 5 8 8 2 1 3 0 2 1 5 2 2 3 3 12 25 19 15 13 10 7 3 2 2 2 2 5 7 10 13 20 25
3 1 1 2 2 3 4 3 3 2 4 6 5 1 4 3 2 3 2 1 4 4 0 4 5 8 22 22 17 17 11 11 7 4 3 3 3 1 4 5 7 10 13 20
2 2 3 4 3 4 5 4 4 7 3 10 7 4 3 3 2 2 1 4 1 3 3 5 3 21 26 22 18 16 15 10 6 5 1 2 3 1 4 6 7 9 10 13
3 3 3 5 10 9 16 12 5 3 2 1 5 6 3 3 2 1 1 2 4 5 4 3 8 23 26 21 17 14 13 9 7 7 5 6 5 3 3 4 6 9 8 9
3 5 4 7 8 7 6 12 10 8 4 6 5 3 3 2 3 2 5 3 5 3 3 7 8 22 23 18 15 12 12 8 6 8 7 6 3 5 5 3 3 5 7 7
4 5 10 15 14 13 13 12 11 11 6 1 5 2 7 5 3 4 4 4 3 2 5 5 6 5 13 14 14 13 13 10 5 5 6 8 7 8 8 5 3 2 8 9
Wind_Direction
350 349 347 345 342 354 350 356 17 160 151 102 195 192 218 305 330 356 343 39 33 32 34 9 40 63 67 68 2 62 318 128 62 153 136 72 66 39 60 106 279 185 160 251
355 353 352 350 345 354 0 340 303 182 182 126 277 282 280 261 263 82 41 24 27 5 51 49 15 63 47 57 64 65 325 23 32 344 1 15 34 3 26 336 51 332 152 311
358 357 353 354 346 351 345 5 16 196 212 240 235 300 279 291 102 72 82 17 26 42 42 14 23 21 32 43 40 30 76 59 119 154 221 245 9 48 49 87 69 356 12 352
359 357 356 359 353 9 37 26 347 25 286 280 260 163 264 31 21 59 28 35 40 43 61 34 34 359 355 24 23 21 84 92 120 167 56 73 68 37 64 65 302 95 42 43
0 359 360 5 7 20 30 26 5 339 292 312 346 354 11 60 21 48 15 83 63 55 83 108 305 22 24 315 342 35 348 282 110 355 351 51 72 30 74 87 65 79 80 53
1 2 3 6 18 29 27 11 17 319 325 332 63 325 41 21 82 36 74 92 87 44 346 320 292 278 265 249 201 251 72 116 88 298 337 36 32 1 16 102 26 202 62 254
3 2 6 10 13 24 36 25 19 9 313 10 351 27 73 67 58 106 56 62 85 315 322 304 295 273 260 259 266 189 137 101 92 177 30 36 175 347 67 105 77 85 101 308
3 3 5 9 13 15 27 29 31 24 310 333 3 15 17 30 22 61 94 71 24 328 336 37 14 351 11 58 57 53 87 99 59 114 135 88 359 344 339 138 131 320 352 325
0 4 3 7 12 23 35 34 30 17 338 336 355 28 27 39 339 1 88 25 346 333 77 69 126 185 202 46 144 69 66 78 104 78 142 225 240 318 325 125 182 19 21 5
358 360 1 4 10 22 50 39 27 30 349 27 34 37 339 13 9 94 344 344 357 23 45 51 105 295 124 81 73 9 22 16 94 45 119 303 338 326 359 101 269 343 357 345
354 355 357 1 5 15 50 26 6 21 335 37 27 30 29 58 56 102 329 41 3 27 49 63 308 72 323 71 344 132 116 109 73 62 96 251 352 23 95 311 333 343 338 332
347 351 351 355 2 4 8 21 359 272 234 263 354 292 278 97 29 359 38 104 131 70 77 16 101 26 31 138 156 11 42 164 168 147 203 166 86 98 45 358 348 336 329 325
341 345 345 347 354 2 5 11 10 88 358 280 279 265 141 135 155 285 121 72 70 45 3 187 202 73 124 99 233 108 20 83 92 104 218 190 155 25 358 347 336 330 326 317
333 336 338 340 348 353 15 37 26 40 343 324 344 145 207 170 214 201 85 108 112 349 318 355 106 135 145 192 171 116 194 105 154 277 324 17 16 351 341 348 337 332 329 330
322 324 328 329 339 355 33 183 39 21 359 272 278 226 214 221 228 181 190 119 70 12 358 38 257 192 88 2 79 127 170 167 142 223 216 244 298 310 328 347 350 342 336 334
310 311 315 317 326 322 215 267 357 351 346 296 327 335 184 196 205 174 171 167 235 247 323 273 187 56 137 101 170 190 154 150 162 198 251 308 314 273 346 346 347 345 339 321
299 297 301 304 306 300 251 245 315 332 337 333 314 314 194 197 187 176 217 202 211 222 267 244 135 114 112 111 198 177 170 161 139 197 272 310 187 351 1 355 352 357 353 344
299 295 293 289 290 281 302 72 338 336 322 279 220 278 205 191 189 206 233 237 221 223 225 205 156 168 172 237 183 161 165 156 124 107 315 126 26 10 2 357 359 2 5 359
304 302 296 291 174 316 329 319 297 283 247 257 283 188 246 181 211 213 229 212 130 225 205 241 165 191 213 204 171 178 180 169 138 149 161 315 336 10 360 11 16 9 12 8
290 238 95 94 357 317 306 307 273 257 186 218 243 274 264 260 209 175 145 96 177 113 247 191 152 245 238 205 210 192 175 162 170 178 193 322 358 14 353 11 15 13 18 17
167 145 245 289 327 304 266 272 207 185 244 209 229 229 243 7 105 190 200 177 185 108 264 146 242 260 219 196 182 174 163 170 192 198 151 340 150 324 318 11 12 23 22 20
176 240 312 311 285 267 316 248 277 197 236 194 195 215 207 214 24 106 73 157 96 241 244 130 255 251 205 179 172 167 168 177 171 182 285 273 172 335 355 7 6 15 18 22
178 190 316 289 242 33 209 225 253 225 216 198 192 135 133 132 93 88 73 134 240 315 316 229 225 189 173 171 168 167 173 184 181 181 309 181 178 13 15 1 356 3 8 17
182 201 315 169 237 231 203 227 236 274 239 180 172 175 149 132 93 147 95 250 40 259 240 238 227 188 182 172 172 170 174 182 191 198 217 142 162 276 347 337 342 347 341 1
209 222 227 226 241 276 302 299 223 106 42 13 117 63 66 31 135 202 69 267 247 218 237 243 246 195 175 178 181 187 186 188 199 209 230 214 211 244 272 313 320 338 342 349
230 228 262 271 281 304 337 3 9 12 332 160 106 96 58 315 222 177 216 213 225 251 261 296 222 186 184 184 184 192 200 212 223 228 255 198 219 225 254 279 325 345 352 349
240 251 248 268 283 273 294 323 324 344 341 164 116 172 199 206 209 219 197 208 220 205 98 120 123 205 212 200 201 205 215 229 240 256 237 208 231 254 256 258 324 307 349 352